Regional Weather Roundup
Issued by NWS

Home | Current Version | Previous Version | Graphics & Text | Print | Product List | Glossary On
Versions: 1 2 3 4 5 6 7 8 9 10 11 12 13 14 15 16 17 18 19 20 21 22 23 24 25 26 27 28 29 30 31 32 33 34 35 36 37 38 39 40 41 42 43 44 45 46 47 48 49 50
000
ASUS45 KABQ 291701
RWRNM
WEATHER ROUNDUP FOR NEW MEXICO
NATIONAL WEATHER SERVICE ALBUQUERQUE NM
1100 AM MDT TUE JUL 29 2014

NOTE: "FAIR" MEANS FEW OR NO CLOUDS BELOW 12,000 FEET AGL WITH NO
       SIGNIFICANT WEATHER OR OBSTRUCTIONS TO VISION.

      THIS PRODUCT IS RELEASED AS TWO VERSIONS.  ONE VERSION NEAR
      THE TOP OF THE HOUR CONTAINING PRELIMINARY DATA FROM ALBUQUERQUE
      AND OTHER STATIONS.  A FINAL VERSION WITH ADDITIONAL DATA IS
      ISSUED ABOUT 10 MINUTES AFTER THE HOUR.

NMZ501-503-504-510>518-291800-
NORTHWEST PLATEAU/NORTHCENTRAL MOUNTAINS

CITY           SKY/WX    TMP DP  RH WIND       PRES   REMARKS
FARMINGTON     SUNNY     73  56  54 CALM      30.30F
LOS ALAMOS     PTSUNNY   65  57  74 CALM      30.43S
SANTA FE       PTSUNNY   69  59  70 S5        30.37F
TAOS           MOSUNNY   68  52  56 SW6       30.42F
ANGEL FIRE     FAIR      66  54  65 SW10G18   30.48S

$$
NMZ402-403-502-505>509-291800-
WESTCENTRAL MOUNTAINS/SOUTHWEST MOUNTAINS

CITY           SKY/WX    TMP DP  RH WIND       PRES   REMARKS
GALLUP         SUNNY     72  56  57 CALM      30.38S

$$
NMZ407-409-411-412-291800-
SOUTHERN DESERTS

CITY           SKY/WX    TMP DP  RH WIND       PRES   REMARKS
LORDSBURG      FAIR      84  59  42 SE6       30.23S
DEMING         SUNNY     81  58  45 MISG      30.24S
LAS CRUCES     PTSUNNY   80  61  52 SE6       30.27S
HOLLOMAN AFB   MOSUNNY   77  64  65 S7        30.24F
T OR C         SUNNY     80  52  37 S12       30.26F

$$
NMZ519>523-291800-
CENTRAL VALLEYS/CENTRAL HIGHLANDS

CITY           SKY/WX    TMP DP  RH WIND       PRES   REMARKS
ALBUQUERQUE    PTSUNNY   73  60  63 S6        30.32F
DOUBLE EAGLE   PTSUNNY   72  61  68 S6        30.36S
CLINES CORNERS LGT RAIN  65  58  78 SW10      30.41S
BELEN          PTSUNNY   76  60  58 SW5       30.30F
SOCORRO        FAIR      76  59  55 SE10      30.28F

$$
NMZ524>526-539-540-291800-
SOUTHCENTRAL MOUNTAINS

CITY           SKY/WX    TMP DP  RH WIND       PRES   REMARKS
RUIDOSO        NOT AVBL

$$
NMZ527>531-291800-
NORTHEAST HIGHLANDS/NORTHEAST PLAINS

CITY           SKY/WX    TMP DP  RH WIND       PRES   REMARKS
LAS VEGAS      PTSUNNY   65  59  81 S15       30.39F
RATON          PTSUNNY   69  58  67 S8        30.34S
CLAYTON        PTSUNNY   75  61  61 SW17G24   30.27F

$$
NMZ532>537-291800-
EASTCENTRAL PLAINS

CITY           SKY/WX    TMP DP  RH WIND       PRES   REMARKS
TUCUMCARI      CLOUDY    70  64  81 SW12      30.25F
CANNON AFB     NOT AVBL
CLOVIS AIRPORT NOT AVBL

$$
NMZ028-029-538-291800-
SOUTHEAST PLAINS

CITY           SKY/WX    TMP DP  RH WIND       PRES   REMARKS
ROSWELL        RAIN      69  67  93 E7        30.27F FOG
ARTESIA        CLOUDY    73  66  78 N13       30.28R
CARLSBAD       CLOUDY    82  60  47 N12       30.22R
HOBBS          MOSUNNY   75  59  57 NE7       30.27R


$$



USA.gov is the U.S. government's official web portal to all federal, state and local government web resources and services.